Location: Charlottesville
(38.0290°N, 78.4770°W)
Time: 03:52:51
(UTC-04:00)

OTV 5 (USA 277) - Pass Details

Date: 16 October 2017
Orbit: 404 x 417 km, 43.0° (Epoch: 07 September)

Event Time Altitude Azimuth Distance (km) Brightness Sun altitude
Rises 19:27:42 0° 283° (WNW) 2,353 ? -11.2°
Reaches altitude 10° 19:29:56 10° 293° (WNW) 1,491 ? -11.7°
Maximum altitude 19:33:02 33° 359° (N) 723 ? -12.3°
Enters shadow 19:35:01 18° 55° (NE) 1,102 ? -12.7°
